Time,TemperatureF,DewpointF,PressureIn,WindDirection,WindDirectionDegrees,WindSpeedMPH,WindSpeedGustMPH,Humidity,HourlyPrecipIn,Conditions,Clouds,dailyrainin,SolarRadiationWatts/m^2,SoftwareType,DateUTC
2013-01-30 00:16:00,71.4,67.0,30.07,East,97,1.0,-999.0,87,-99.99,,,0.00,0,weatherlink.com 1.10,2013-01-30 05:16:00,
2013-01-30 00:32:00,71.1,67.0,30.07,SE,129,0.0,-999.0,87,-99.99,,,0.00,0,weatherlink.com 1.10,2013-01-30 05:32:00,
2013-01-30 00:47:00,70.5,67.0,30.07,SE,125,0.0,-999.0,88,-99.99,,,0.00,0,weatherlink.com 1.10,2013-01-30 05:47:00,
2013-01-30 01:02:00,70.1,67.0,30.07,East,84,3.0,-999.0,88,-99.99,,,0.00,0,weatherlink.com 1.10,2013-01-30 06:02:00,
2013-01-30 01:17:00,69.8,67.0,30.07,East,96,2.0,-999.0,89,-99.99,,,0.00,0,weatherlink.com 1.10,2013-01-30 06:17:00,
2013-01-30 01:32:00,69.5,66.0,30.07,SE,128,2.0,-999.0,89,-99.99,,,0.00,0,weatherlink.com 1.10,2013-01-30 06:32:00,
2013-01-30 01:47:00,69.2,66.0,30.07,East,93,2.0,-999.0,89,-99.99,,,0.00,0,weatherlink.com 1.10,2013-01-30 06:47:00,
2013-01-30 02:02:00,68.8,66.0,30.07,South,190,0.0,-999.0,89,-99.99,,,0.00,0,weatherlink.com 1.10,2013-01-30 07:02:00,
2013-01-30 02:17:00,68.6,65.0,30.06,ESE,115,0.0,-999.0,89,-99.99,,,0.00,0,weatherlink.com 1.10,2013-01-30 07:17:00,
2013-01-30 02:32:00,68.5,66.0,30.06,SSE,155,4.0,-999.0,90,-99.99,,,0.00,0,weatherlink.com 1.10,2013-01-30 07:32:00,
2013-01-30 02:47:00,68.3,65.0,30.05,ESE,102,4.0,-999.0,90,-99.99,,,0.00,0,weatherlink.com 1.10,2013-01-30 07:47:00,
2013-01-30 03:02:00,68.2,65.0,30.05,SSE,165,1.0,-999.0,90,-99.99,,,0.00,0,weatherlink.com 1.10,2013-01-30 08:02:00,
2013-01-30 03:17:00,68.1,65.0,30.05,SE,132,4.0,-999.0,90,-99.99,,,0.00,0,weatherlink.com 1.10,2013-01-30 08:17:00,
2013-01-30 03:32:00,67.8,65.0,30.04,SE,138,5.0,-999.0,90,-99.99,,,0.00,0,weatherlink.com 1.10,2013-01-30 08:32:00,
2013-01-30 03:47:00,67.6,65.0,30.04,SSE,161,7.0,-999.0,90,-99.99,,,0.00,0,weatherlink.com 1.10,2013-01-30 08:47:00,
2013-01-30 04:02:00,67.5,65.0,30.04,SE,124,2.0,-999.0,90,-99.99,,,0.00,0,weatherlink.com 1.10,2013-01-30 09:02:00,
2013-01-30 04:17:00,67.3,64.0,30.03,SE,146,4.0,-999.0,90,-99.99,,,0.00,0,weatherlink.com 1.10,2013-01-30 09:17:00,
2013-01-30 04:32:00,67.3,64.0,30.03,SSE,161,4.0,-999.0,90,-99.99,,,0.00,0,weatherlink.com 1.10,2013-01-30 09:32:00,
2013-01-30 04:47:00,67.2,64.0,30.03,ESE,107,1.0,-999.0,90,-99.99,,,0.00,0,weatherlink.com 1.10,2013-01-30 09:47:00,
2013-01-30 05:02:00,67.1,64.0,30.02,East,86,2.0,-999.0,90,-99.99,,,0.00,0,weatherlink.com 1.10,2013-01-30 10:02:00,
2013-01-30 05:17:00,66.9,64.0,30.02,East,83,2.0,-999.0,90,-99.99,,,0.00,0,weatherlink.com 1.10,2013-01-30 10:17:00,
2013-01-30 05:32:00,66.8,64.0,30.02,ESE,105,2.0,-999.0,90,-99.99,,,0.00,0,weatherlink.com 1.10,2013-01-30 10:32:00,
2013-01-30 05:47:00,66.8,64.0,30.02,SSE,168,0.0,-999.0,90,-99.99,,,0.00,0,weatherlink.com 1.10,2013-01-30 10:47:00,
2013-01-30 06:02:00,66.6,64.0,30.02,ESE,123,4.0,-999.0,90,-99.99,,,0.00,0,weatherlink.com 1.10,2013-01-30 11:02:00,
2013-01-30 06:17:00,66.7,64.0,30.02,SSE,156,2.0,-999.0,90,-99.99,,,0.00,0,weatherlink.com 1.10,2013-01-30 11:17:00,
2013-01-30 06:32:00,66.6,64.0,30.02,East,84,1.0,-999.0,90,-99.99,,,0.00,0,weatherlink.com 1.10,2013-01-30 11:32:00,
2013-01-30 06:47:00,66.6,64.0,30.02,SSE,158,0.0,-999.0,90,-99.99,,,0.00,0,weatherlink.com 1.10,2013-01-30 11:47:00,
2013-01-30 07:02:00,66.4,64.0,30.02,ESE,103,1.0,-999.0,91,-99.99,,,0.00,0,weatherlink.com 1.10,2013-01-30 12:02:00,
2013-01-30 07:17:00,66.4,64.0,30.02,ESE,113,4.0,-999.0,91,-99.99,,,0.00,0,weatherlink.com 1.10,2013-01-30 12:17:00,
2013-01-30 07:33:00,66.5,64.0,30.02,ENE,72,4.0,-999.0,91,-99.99,,,0.00,12,weatherlink.com 1.10,2013-01-30 12:33:00,
2013-01-30 07:47:00,66.8,64.0,30.02,SE,132,6.0,-999.0,91,-99.99,,,0.00,35,weatherlink.com 1.10,2013-01-30 12:47:00,
2013-01-30 08:02:00,67.6,65.0,30.02,ESE,120,7.0,-999.0,90,-99.99,,,0.00,76,weatherlink.com 1.10,2013-01-30 13:02:00,
2013-01-30 08:18:00,68.4,65.0,30.02,SSE,153,7.0,-999.0,88,-99.99,,,0.00,128,weatherlink.com 1.10,2013-01-30 13:18:00,
2013-01-30 08:32:00,69.3,65.0,30.02,East,100,0.0,-999.0,87,-99.99,,,0.00,185,weatherlink.com 1.10,2013-01-30 13:32:00,
2013-01-30 08:48:00,70.2,66.0,30.02,ESE,107,2.0,-999.0,85,-99.99,,,0.00,246,weatherlink.com 1.10,2013-01-30 13:48:00,
2013-01-30 09:03:00,71.0,66.0,30.01,ESE,115,4.0,-999.0,83,-99.99,,,0.00,294,weatherlink.com 1.10,2013-01-30 14:03:00,
2013-01-30 09:18:00,71.9,66.0,30.01,ENE,61,2.0,-999.0,82,-99.99,,,0.00,345,weatherlink.com 1.10,2013-01-30 14:18:00,
2013-01-30 09:33:00,73.1,66.0,30.00,ESE,116,4.0,-999.0,79,-99.99,,,0.00,394,weatherlink.com 1.10,2013-01-30 14:33:00,
2013-01-30 09:48:00,73.4,67.0,30.00,North,11,0.0,-999.0,79,-99.99,,,0.00,434,weatherlink.com 1.10,2013-01-30 14:48:00,
2013-01-30 10:03:00,73.8,67.0,29.99,SE,131,6.0,-999.0,79,-99.99,,,0.00,476,weatherlink.com 1.10,2013-01-30 15:03:00,
2013-01-30 10:18:00,74.7,67.0,29.99,SE,134,4.0,-999.0,77,-99.99,,,0.00,513,weatherlink.com 1.10,2013-01-30 15:18:00,
2013-01-30 10:33:00,75.8,67.0,29.99,WSW,257,4.0,-999.0,75,-99.99,,,0.00,520,weatherlink.com 1.10,2013-01-30 15:33:00,
2013-01-30 10:48:00,76.8,67.0,29.99,South,175,4.0,-999.0,72,-99.99,,,0.00,582,weatherlink.com 1.10,2013-01-30 15:48:00,
2013-01-30 11:04:00,77.4,67.0,29.97,ESE,117,4.0,-999.0,71,-99.99,,,0.00,615,weatherlink.com 1.10,2013-01-30 16:04:00,
2013-01-30 11:19:00,78.1,68.0,29.98,ESE,113,1.0,-999.0,70,-99.99,,,0.00,636,weatherlink.com 1.10,2013-01-30 16:19:00,
2013-01-30 11:33:00,79.0,67.0,29.98,SSW,202,2.0,-999.0,66,-99.99,,,0.00,664,weatherlink.com 1.10,2013-01-30 16:33:00,
2013-01-30 11:49:00,79.2,66.0,29.98,NNW,338,2.0,-999.0,64,-99.99,,,0.00,680,weatherlink.com 1.10,2013-01-30 16:49:00,
2013-01-30 12:03:00,79.3,67.0,29.99,West,259,5.0,-999.0,65,-99.99,,,0.00,694,weatherlink.com 1.10,2013-01-30 17:03:00,
2013-01-30 12:19:00,79.1,66.0,29.98,SE,126,9.0,-999.0,65,-99.99,,,0.00,708,weatherlink.com 1.10,2013-01-30 17:19:00,
2013-01-30 12:34:00,78.6,67.0,29.97,WSW,258,5.0,-999.0,67,-99.99,,,0.00,708,weatherlink.com 1.10,2013-01-30 17:34:00,
2013-01-30 12:49:00,78.8,67.0,29.96,NE,42,0.0,-999.0,67,-99.99,,,0.00,714,weatherlink.com 1.10,2013-01-30 17:49:00,
2013-01-30 13:04:00,78.7,67.0,29.96,WSW,244,3.0,-999.0,67,-99.99,,,0.00,707,weatherlink.com 1.10,2013-01-30 18:04:00,
2013-01-30 13:19:00,78.4,67.0,29.97,WSW,238,3.0,-999.0,68,-99.99,,,0.00,696,weatherlink.com 1.10,2013-01-30 18:19:00,
2013-01-30 13:34:00,78.8,68.0,29.96,SE,130,7.0,-999.0,69,-99.99,,,0.00,686,weatherlink.com 1.10,2013-01-30 18:34:00,
2013-01-30 13:49:00,78.9,68.0,29.95,SE,146,8.0,-999.0,69,-99.99,,,0.00,670,weatherlink.com 1.10,2013-01-30 18:49:00,
2013-01-30 14:04:00,79.0,68.0,29.95,East,101,4.0,-999.0,69,-99.99,,,0.00,649,weatherlink.com 1.10,2013-01-30 19:04:00,
2013-01-30 14:19:00,79.3,68.0,29.94,WNW,288,4.0,-999.0,68,-99.99,,,0.00,624,weatherlink.com 1.10,2013-01-30 19:19:00,
2013-01-30 14:34:00,78.6,68.0,29.94,WSW,256,0.0,-999.0,69,-99.99,,,0.00,594,weatherlink.com 1.10,2013-01-30 19:34:00,
2013-01-30 14:49:00,78.3,68.0,29.94,West,270,9.0,-999.0,70,-99.99,,,0.00,559,weatherlink.com 1.10,2013-01-30 19:49:00,
2013-01-30 15:04:00,77.8,67.0,29.93,SE,144,1.0,-999.0,70,-99.99,,,0.00,524,weatherlink.com 1.10,2013-01-30 20:04:00,
2013-01-30 15:19:00,78.1,68.0,29.93,South,170,0.0,-999.0,71,-99.99,,,0.00,485,weatherlink.com 1.10,2013-01-30 20:19:00,
2013-01-30 15:34:00,77.7,68.0,29.93,SW,229,6.0,-999.0,71,-99.99,,,0.00,367,weatherlink.com 1.10,2013-01-30 20:34:00,
2013-01-30 15:49:00,77.4,68.0,29.93,WNW,298,6.0,-999.0,72,-99.99,,,0.00,192,weatherlink.com 1.10,2013-01-30 20:49:00,
2013-01-30 16:04:00,77.3,68.0,29.92,SSE,150,4.0,-999.0,72,-99.99,,,0.00,221,weatherlink.com 1.10,2013-01-30 21:04:00,
2013-01-30 16:19:00,76.9,67.0,29.92,SSW,202,1.0,-999.0,72,-99.99,,,0.00,237,weatherlink.com 1.10,2013-01-30 21:19:00,
2013-01-30 16:34:00,76.7,67.0,29.92,SE,126,1.0,-999.0,72,-99.99,,,0.00,114,weatherlink.com 1.10,2013-01-30 21:34:00,
2013-01-30 16:49:00,76.0,67.0,29.92,West,259,1.0,-999.0,74,-99.99,,,0.00,58,weatherlink.com 1.10,2013-01-30 21:49:00,
2013-01-30 17:04:00,75.3,67.0,29.91,South,188,5.0,-999.0,75,-99.99,,,0.00,47,weatherlink.com 1.10,2013-01-30 22:04:00,
2013-01-30 17:19:00,74.9,67.0,29.91,South,173,0.0,-999.0,76,-99.99,,,0.00,33,weatherlink.com 1.10,2013-01-30 22:19:00,
2013-01-30 17:34:00,74.4,67.0,29.91,NW,310,1.0,-999.0,77,-99.99,,,0.00,25,weatherlink.com 1.10,2013-01-30 22:34:00,
2013-01-30 17:49:00,73.9,66.0,29.91,East,86,4.0,-999.0,77,-99.99,,,0.00,16,weatherlink.com 1.10,2013-01-30 22:49:00,
2013-01-30 18:04:00,73.5,66.0,29.90,SW,220,0.0,-999.0,78,-99.99,,,0.00,7,weatherlink.com 1.10,2013-01-30 23:04:00,
2013-01-30 18:19:00,73.1,66.0,29.91,SSW,196,5.0,-999.0,79,-99.99,,,0.00,0,weatherlink.com 1.10,2013-01-30 23:19:00,
2013-01-30 18:34:00,72.9,67.0,29.91,ESE,119,0.0,-999.0,81,-99.99,,,0.00,0,weatherlink.com 1.10,2013-01-30 23:34:00,
2013-01-30 18:49:00,72.5,67.0,29.91,South,186,3.0,-999.0,82,-99.99,,,0.00,0,weatherlink.com 1.10,2013-01-30 23:49:00,
2013-01-30 19:04:00,72.3,67.0,29.91,ESE,111,0.0,-999.0,82,-99.99,,,0.00,0,weatherlink.com 1.10,2013-01-31 00:04:00,
2013-01-30 19:19:00,72.0,66.0,29.91,SSE,166,2.0,-999.0,82,-99.99,,,0.00,0,weatherlink.com 1.10,2013-01-31 00:19:00,
2013-01-30 19:34:00,71.9,66.0,29.91,West,266,2.0,-999.0,82,-99.99,,,0.00,0,weatherlink.com 1.10,2013-01-31 00:34:00,
2013-01-30 19:49:00,71.7,66.0,29.91,SW,225,4.0,-999.0,83,-99.99,,,0.00,0,weatherlink.com 1.10,2013-01-31 00:49:00,
2013-01-30 20:04:00,71.7,66.0,29.90,SSW,206,2.0,-999.0,83,-99.99,,,0.00,0,weatherlink.com 1.10,2013-01-31 01:04:00,
2013-01-30 20:19:00,71.5,67.0,29.91,South,188,7.0,-999.0,84,-99.99,,,0.00,0,weatherlink.com 1.10,2013-01-31 01:19:00,
2013-01-30 20:34:00,71.5,67.0,29.91,WSW,242,4.0,-999.0,84,-99.99,,,0.00,0,weatherlink.com 1.10,2013-01-31 01:34:00,
2013-01-30 20:49:00,71.3,67.0,29.91,West,263,2.0,-999.0,85,-99.99,,,0.00,0,weatherlink.com 1.10,2013-01-31 01:49:00,
2013-01-30 21:04:00,71.3,67.0,29.91,SSE,157,4.0,-999.0,85,-99.99,,,0.00,0,weatherlink.com 1.10,2013-01-31 02:04:00,
2013-01-30 21:19:00,71.2,67.0,29.91,WNW,291,3.0,-999.0,85,-99.99,,,0.00,0,weatherlink.com 1.10,2013-01-31 02:19:00,
2013-01-30 21:34:00,71.2,67.0,29.91,West,259,4.0,-999.0,85,-99.99,,,0.00,0,weatherlink.com 1.10,2013-01-31 02:34:00,
2013-01-30 21:49:00,71.2,67.0,29.91,SSW,208,2.0,-999.0,85,-99.99,,,0.00,0,weatherlink.com 1.10,2013-01-31 02:49:00,
2013-01-30 22:04:00,71.2,67.0,29.92,West,276,2.0,-999.0,86,-99.99,,,0.00,0,weatherlink.com 1.10,2013-01-31 03:04:00,
2013-01-30 22:19:00,71.0,67.0,29.91,West,266,4.0,-999.0,87,-99.99,,,0.00,0,weatherlink.com 1.10,2013-01-31 03:19:00,
2013-01-30 22:34:00,70.9,67.0,29.92,SW,233,5.0,-999.0,87,-99.99,,,0.00,0,weatherlink.com 1.10,2013-01-31 03:34:00,
2013-01-30 22:49:00,70.7,67.0,29.91,SW,233,4.0,-999.0,87,-99.99,,,0.00,0,weatherlink.com 1.10,2013-01-31 03:49:00,
2013-01-30 23:04:00,70.6,67.0,29.91,ESE,113,2.0,-999.0,88,-99.99,,,0.00,0,weatherlink.com 1.10,2013-01-31 04:04:00,
2013-01-30 23:19:00,70.5,67.0,29.92,WNW,288,1.0,-999.0,89,-99.99,,,0.00,0,weatherlink.com 1.10,2013-01-31 04:19:00,
2013-01-30 23:34:00,70.4,67.0,29.92,South,186,3.0,-999.0,89,-99.99,,,0.00,0,weatherlink.com 1.10,2013-01-31 04:34:00,
2013-01-30 23:49:00,70.5,67.0,29.91,SSW,198,0.0,-999.0,89,-99.99,,,0.00,0,weatherlink.com 1.10,2013-01-31 04:49:00,